Simultaneous Nadir Overpasses (SNOs) Predictions

Prediction of SNOs between AQUA and METOP-A Satellite Orbit:

Table of predicted SNOs for the next 14.0 days since TLE Epoch: 12/23/2016
Index Date (AQUA) Time (AQUA) Lat,Lon (AQUA) SZA (AQUA ) Date (METOP-A) Time (METOP-A) Lat,Lon (METOP-A) SZA (METOP-A ) Distance(km) Time Diff (sec)
1 12/25/2016 03:02:35 -73.42, -50.69 83.24 12/25/2016 03:01:25 -73.38, -52.29 83.22 51.29 70
2 12/25/2016 03:52:10 73.82, 116.08 97.19 12/25/2016 03:51:56 73.80, 116.02 97.18 2.83 14
3 12/25/2016 04:41:37 -73.88, -76.41 82.75 12/25/2016 04:42:36 -73.91, -76.41 82.73 2.73 59
4 12/27/2016 22:36:55 -73.69, 15.18 83.06 12/27/2016 22:35:42 -73.65, 14.73 83.07 14.77 73
5 12/27/2016 23:26:25 73.83,-177.50 97.10 12/27/2016 23:26:18 73.82,-177.53 97.09 1.17 7
6 12/28/2016 00:15:52 -73.89, -9.98 82.85 12/28/2016 00:16:59 -73.88, -10.07 82.86 2.93 67
7 12/30/2016 18:11:12 -73.75, 81.47 83.15 12/30/2016 18:10:03 -73.77, 81.41 83.13 2.44 69
8 12/30/2016 19:00:41 73.85,-111.10 96.95 12/30/2016 19:00:41 73.84,-111.08 96.95 0.88 0
9 12/30/2016 19:50:08 -73.91, 56.42 83.00 12/30/2016 19:51:21 -73.95, 56.50 82.97 5.13 73
10 01/02/2017 13:45:28 -73.78, 147.86 83.35 01/02/2017 13:44:26 -73.78, 147.85 83.34 0.48 62
11 01/02/2017 14:34:57 73.87, -44.71 96.75 01/02/2017 14:35:04 73.86, -44.63 96.74 3.05 7
12 01/02/2017 15:24:29 -74.19, 122.21 82.92 01/02/2017 15:25:39 -74.21, 123.55 82.95 40.57 70
13 01/05/2017 09:19:43 -73.81,-145.78 83.60 01/05/2017 09:18:48 -73.80,-145.71 83.61 2.75 55
14 01/05/2017 10:09:11 73.86, 21.77 96.45 01/05/2017 10:09:26 73.87, 21.81 96.46 2.16 15




NCC Satellite Simultaneous Nadir Overpasses (SNOs) Prediction Service
